Find Starlink 37712

NORAD ID: 100109 Int'l Des: 2026-166 Owner: SPXS Country: US Constellation: starlink operational

現在のビュー

3D地球を読み込み中...

About Starlink 37712

Starlink 37712 (NORAD 100109) is a starlink constellation satellite (v2 mini) launched Jul 21, 2026 by SPXS of US. with a mass of 575.00 kg.

次回通過

Passes for default location (London). Set your location on the main map for personalized predictions.

高度履歴

Loading altitude history...

軌道要素

1 A0109U 26166J 26223.97721414 .00124321 00000-0 63851-3 0 9990
2 A0109 97.2847 240.4079 0001792 66.2384 293.9072 15.80885877 3386
Epoch: Aug 11, 2026 • Age: 9 hours

現在のステータス

高度 336.9 km
遠地点 / 近地点 N/A
速度 7.71 km/s
衛星直下点 -24.30°S, 156.31°E
打ち上げ日 Jul 21, 2026
運用期間 21 days
タイプ internet

技術仕様

分類 Payload
質量 575.00 kg
乾燥質量 530.00 kg
総質量 575.00 kg
長さ 0.30 m
直径 4.10 m
スパン 29.00 m
形状 Box + pan
製造者 SPXS
バスタイプ Starlink V2MO
フェーズステータス In Orbit
所有者/国 SPXS/US

Most Searched